GFO

operational
NORAD ID: 25157 Int'l Des: 1998-007 Owner: USN Country: US
LEOCIRCULARRETROGRADE

关于 GFO

正在加载描述...

实时位置

正在加载3D地球...

即将过境

高度历史

Altitude vs Time

uPlot chart will show altitude changes over time

两行轨道根数

1 25157U 98007A 26071.29362632 .00077445 00000-0 70125-3 0 9998
2 25157 108.0179 273.9944 0047727 188.2946 171.7478 15.66255234511259
Epoch: Mar 12, 2026 • Age: 21 hours

当前状态

高度 371.2 km
速度 7.70 km/s
星下点 62.10°N, 2.8°E
发射日期 Feb 10, 1998
运行时间 28 years
类型 other

技术详情

分类 Payload
质量 365.00 kg
干质量 300.00 kg
总质量 365.00 kg
长度 2.70 m
直径 1.00 m
跨度 2.70 m
形状 Cyl + Dish + Pan
制造商 BALL
平台类型 BCP-2000/Tchstar
阶段状态 In Orbit
所有者/国家 USN/US

大型星座

Loading constellations...